Location: Sungai Igah
(2.7333°N, 114.2500°E)
Time: 18:07:52
(UTC+00:00)

Cosmos 2297 Rocket - Pass Details

Date: 14 June 2021
Orbit: 838 x 844 km, 71.0° (Epoch: 24 July)

Event Time Altitude Azimuth Distance (km) Brightness Sun altitude
Rises 13:01:59 0° 333° (NNW) 3,387 6.1 -34.5°
Reaches altitude 10° 13:04:31 10° 327° (NNW) 2,453 5.3 -35.1°
Enters shadow 13:08:27 38° 293° (WNW) 1,268 3.4 -35.9°
